�N����,����,�~����,�C��,���x,�C��,����,���ϕ���,�ő�u�ԕ���,�ő厞����,���˗�,�I�_���x,�n�����x,�ő啗���N��,DTYPE
"19/10/04","00:10",0.0,21.5,95.2,1001.2,330.3,1.0,1.7,329.4,0.00,20.7,23.2,"00:06:16",1
"19/10/04","00:20",0.0,21.5,95.2,1000.8,295.9,0.5,1.2,309.0,0.00,20.7,23.3,"00:19:44",1
"19/10/04","00:30",0.0,21.6,95.2,1001.2,305.5,1.1,1.8,329.7,0.00,20.8,23.2,"00:29:44",1
"19/10/04","00:40",0.0,21.4,95.2,1001.9,307.8,1.6,3.3,328.3,0.00,20.6,23.3,"00:34:48",1
"19/10/04","00:50",0.0,21.4,95.4,1001.5,327.2,0.8,1.7,349.6,0.00,20.7,22.6,"00:44:48",1
"19/10/04","01:00",0.0,21.4,95.5,1001.9,160.2,1.0,2.0,112.7,0.00,20.7,22.6,"00:52:20",1
"19/10/04","01:10",0.0,21.4,95.5,1001.9,341.0,1.8,3.3,335.0,0.00,20.7,22.7,"01:07:34",1
"19/10/04","01:20",0.0,21.5,95.5,1001.9,44.7,1.0,2.6,77.0,0.00,20.8,22.7,"01:14:28",1
"19/10/04","01:30",0.0,21.6,95.5,1001.9,332.1,0.7,1.6,314.8,0.00,20.9,22.8,"01:29:38",1
"19/10/04","01:40",0.0,21.6,95.6,1002.2,332.5,1.2,2.0,337.2,0.00,20.9,22.7,"01:36:08",1
"19/10/04","01:50",0.0,21.6,95.6,1002.4,339.2,0.7,1.9,346.0,0.00,20.9,22.9,"01:41:10",1
"19/10/04","02:00",0.0,21.6,95.6,1001.9,288.2,0.8,1.6,315.7,0.00,20.9,22.9,"01:55:04",1
"19/10/04","02:10",0.0,21.6,95.7,1001.5,309.8,1.1,1.7,330.2,0.00,20.9,22.7,"02:01:28",1
"19/10/04","02:20",0.0,21.6,95.8,1001.5,282.4,0.3,0.9,267.8,0.00,20.9,22.7,"02:10:56",1
"19/10/04","02:30",0.0,21.5,95.8,1001.7,295.0,1.0,1.3,327.8,0.00,20.8,22.8,"02:22:48",1
"19/10/04","02:40",0.2,21.6,95.9,1001.9,322.3,0.7,1.2,315.6,0.00,21.0,22.7,"02:31:04",1
"19/10/04","02:50",0.0,21.6,95.9,1001.9,323.0,1.1,1.6,327.0,0.00,21.0,22.7,"02:49:10",1
"19/10/04","03:00",0.0,21.6,95.9,1001.7,329.5,1.1,1.4,333.4,0.00,21.0,22.7,"02:50:52",1
"19/10/04","03:10",0.0,21.6,96.0,1001.7,311.6,1.1,1.8,314.1,0.00,21.0,22.8,"03:03:30",1
"19/10/04","03:20",0.0,21.6,95.9,1001.2,280.6,0.8,1.7,257.3,0.00,21.0,22.9,"03:19:46",1
"19/10/04","03:30",0.0,21.7,96.1,1001.9,301.8,1.2,2.0,326.1,0.00,21.1,22.8,"03:28:36",1
"19/10/04","03:40",0.0,21.7,96.1,1001.5,331.0,1.1,2.1,334.5,0.00,21.1,22.8,"03:33:04",1
"19/10/04","03:50",0.0,21.7,96.1,1001.7,246.1,1.0,1.4,245.0,0.00,21.1,23.0,"03:47:28",1
"19/10/04","04:00",0.0,21.7,96.1,1001.7,266.6,0.3,1.1,245.9,0.00,21.1,22.9,"03:50:16",1
"19/10/04","04:10",0.0,21.7,96.0,1001.9,315.1,1.0,1.8,326.8,0.00,21.1,22.7,"04:06:04",1
"19/10/04","04:20",0.0,21.6,96.0,1002.2,321.6,1.3,1.7,335.0,0.00,21.0,22.8,"04:10:08",1
"19/10/04","04:30",0.0,21.5,96.1,1001.9,323.1,0.7,1.7,315.1,0.00,20.9,22.9,"04:28:26",1
"19/10/04","04:40",0.0,21.4,96.3,1001.9,332.8,1.5,2.1,312.6,0.00,20.8,22.7,"04:34:40",1
"19/10/04","04:50",0.0,21.4,96.3,1002.4,308.3,1.0,1.9,334.8,0.00,20.8,22.7,"04:42:08",1
"19/10/04","05:00",0.0,21.2,96.0,1002.2,319.1,1.2,2.5,318.9,0.00,20.6,22.9,"04:53:28",1
"19/10/04","05:10",0.0,21.0,96.2,1002.6,294.9,0.8,1.2,299.9,0.00,20.4,22.9,"05:04:16",1
"19/10/04","05:20",0.0,20.9,96.3,1002.4,308.0,1.1,2.4,329.7,0.00,20.3,22.9,"05:15:36",1
"19/10/04","05:30",0.0,20.8,96.3,1002.6,309.5,1.5,3.1,334.3,0.00,20.2,22.9,"05:22:32",1
"19/10/04","05:40",0.0,20.7,96.2,1002.4,264.5,1.3,2.0,271.4,0.00,20.1,22.8,"05:35:20",1
"19/10/04","05:50",0.0,20.7,96.1,1002.4,267.0,1.2,1.9,249.5,0.00,20.1,22.7,"05:41:28",1
"19/10/04","06:00",0.0,20.6,96.1,1002.9,300.8,0.7,1.3,323.5,0.00,20.0,22.7,"05:57:36",1
"19/10/04","06:10",0.0,20.5,96.2,1002.4,306.1,0.6,1.2,310.4,0.00,19.9,22.7,"06:04:56",1
"19/10/04","06:20",0.0,20.5,96.3,1002.6,287.9,0.3,1.0,250.8,0.00,19.9,22.8,"06:12:48",1
"19/10/04","06:30",0.0,20.3,96.2,1002.9,330.9,0.5,0.9,323.7,0.00,19.7,22.7,"06:20:08",1
"19/10/04","06:40",0.0,20.1,96.6,1003.1,310.6,0.6,1.1,330.3,0.00,19.6,22.8,"06:37:20",1
"19/10/04","06:50",0.0,20.2,96.7,1003.4,326.0,0.7,1.6,326.8,0.00,19.7,22.7,"06:42:24",1
"19/10/04","07:00",0.0,20.1,96.4,1003.4,328.9,0.3,0.9,329.8,0.00,19.5,22.4,"06:56:08",1
"19/10/04","07:10",0.0,20.0,96.8,1003.6,285.7,0.6,1.0,302.7,0.00,19.5,22.4,"07:06:40",1
"19/10/04","07:20",0.0,20.5,96.7,1003.6,318.6,0.6,1.4,335.6,0.01,20.0,22.6,"07:19:52",1
"19/10/04","07:30",0.0,20.9,96.6,1003.8,284.7,0.5,1.1,311.1,0.02,20.4,22.5,"07:29:44",1
"19/10/04","07:40",0.0,21.4,96.2,1003.6,312.5,1.0,1.3,328.6,0.03,20.8,22.5,"07:38:40",1
"19/10/04","07:50",0.0,21.5,95.3,1003.8,304.6,1.3,2.8,322.4,0.05,20.8,22.6,"07:49:28",1
"19/10/04","08:00",0.0,22.0,94.0,1003.6,292.1,1.2,2.6,311.8,0.07,21.0,22.5,"07:59:44",1
"19/10/04","08:10",0.0,22.2,93.5,1003.4,320.4,2.0,4.1,329.2,0.10,21.1,22.6,"08:08:32",1
"19/10/04","08:20",0.0,22.9,91.6,1003.4,301.1,1.1,2.6,340.5,0.12,21.5,22.6,"08:10:56",1
"19/10/04","08:30",0.2,23.3,88.0,1003.6,314.6,1.6,3.9,340.4,0.15,21.2,22.9,"08:21:28",1
"19/10/04","08:40",0.0,23.7,84.9,1003.4,310.9,1.1,2.8,337.1,0.18,21.0,22.8,"08:32:48",1
"19/10/04","08:50",0.0,23.8,83.0,1003.1,306.9,1.2,2.5,257.2,0.20,20.8,23.0,"08:45:36",1
"19/10/04","09:00",0.0,24.3,81.1,1003.4,307.0,1.1,3.4,336.5,0.23,20.9,23.2,"08:53:28",1
"19/10/04","09:10",0.0,24.3,78.2,1003.6,251.8,1.3,4.2,220.7,0.26,20.3,23.4,"09:09:52",1
"19/10/04","09:20",0.0,25.1,77.2,1003.8,264.3,1.1,2.8,333.0,0.30,20.9,23.2,"09:17:52",1
"19/10/04","09:30",0.0,24.6,78.1,1004.1,306.8,1.1,3.3,341.4,0.22,20.6,23.4,"09:28:40",1
"19/10/04","09:40",0.0,25.2,74.9,1003.6,258.1,1.0,2.6,306.8,0.32,20.5,23.7,"09:33:20",1
"19/10/04","09:50",0.0,24.7,73.8,1003.6,221.3,2.0,6.0,222.6,0.25,19.8,23.8,"09:44:56",1
"19/10/04","10:00",0.0,24.8,74.4,1003.4,242.0,1.6,3.5,234.6,0.20,20.0,23.8,"09:54:08",1
"19/10/04","10:10",0.0,24.6,75.2,1003.6,271.1,1.1,2.2,277.9,0.07,20.0,23.9,"10:03:12",1
"19/10/04","10:20",0.0,24.5,75.2,1003.4,278.8,1.0,2.6,225.2,0.10,19.9,23.8,"10:10:32",1
"19/10/04","10:30",0.0,24.7,74.7,1003.1,286.4,1.1,2.8,342.7,0.15,19.9,24.0,"10:23:20",1
"19/10/04","10:40",0.0,25.3,74.4,1003.4,326.6,1.6,3.7,341.7,0.29,20.5,24.1,"10:32:08",1
"19/10/04","10:50",0.0,25.7,71.4,1002.9,235.6,1.0,2.9,321.3,0.41,20.2,24.4,"10:40:16",1
"19/10/04","11:00",0.0,26.2,68.4,1002.4,341.2,0.6,1.4,309.4,0.47,20.0,24.4,"10:54:08",1
"19/10/04","11:10",0.0,25.4,68.6,1002.6,322.2,1.2,3.3,347.7,0.16,19.2,24.7,"11:02:40",1
"19/10/04","11:20",0.0,25.7,69.6,1002.6,296.9,1.7,4.1,2.7,0.22,19.8,24.5,"11:13:44",1
"19/10/04","11:30",0.0,26.9,65.6,1002.9,270.2,1.3,4.0,246.0,0.51,20.0,25.0,"11:24:32",1
"19/10/04","11:40",0.0,25.7,66.2,1003.1,267.6,1.6,5.4,246.0,0.27,19.0,24.9,"11:35:28",1
"19/10/04","11:50",0.0,26.1,66.3,1002.6,330.7,1.3,3.2,0.1,0.33,19.4,25.1,"11:42:00",1
"19/10/04","12:00",0.0,26.5,64.6,1002.6,295.6,1.5,4.5,225.2,0.41,19.3,25.1,"11:55:36",1
"19/10/04","12:10",0.0,26.7,64.8,1001.5,267.4,1.5,5.2,328.2,0.44,19.6,25.4,"12:01:28",1
"19/10/04","12:20",0.0,26.1,62.7,1001.5,316.1,2.2,6.8,334.9,0.45,18.5,25.2,"12:17:28",1
"19/10/04","12:30",0.2,27.0,62.9,1001.5,300.2,1.7,5.0,344.5,0.47,19.4,25.6,"12:26:48",1
"19/10/04","12:40",0.0,26.5,61.3,1001.7,305.2,2.2,5.2,350.4,0.38,18.5,25.8,"12:32:00",1
"19/10/04","12:50",0.0,27.6,62.2,1001.0,285.4,1.2,3.7,222.4,0.37,19.8,25.8,"12:47:12",1
"19/10/04","13:00",0.0,26.5,59.9,1001.2,298.9,1.1,3.6,223.2,0.22,18.1,25.9,"12:57:04",1
"19/10/04","13:10",0.0,27.4,60.3,1001.0,282.5,1.0,3.6,227.5,0.41,19.1,26.0,"13:09:04",1
"19/10/04","13:20",0.0,26.8,61.1,1001.2,314.8,1.8,4.9,339.1,0.30,18.7,25.7,"13:15:20",1
"19/10/04","13:30",0.0,26.5,60.3,1001.2,274.4,1.6,6.0,349.3,0.22,18.2,25.9,"13:28:40",1
"19/10/04","13:40",0.0,27.1,59.6,1001.2,273.0,1.5,3.9,216.0,0.35,18.6,26.1,"13:34:40",1
"19/10/04","13:50",0.0,26.3,60.0,1001.5,316.6,1.3,2.8,345.9,0.23,18.0,26.1,"13:46:56",1
"19/10/04","14:00",0.0,27.4,59.9,1001.0,332.6,1.7,6.0,350.2,0.42,19.0,26.2,"13:51:44",1
"19/10/04","14:10",0.0,27.2,60.2,1001.5,291.8,1.3,5.0,330.1,0.39,18.9,26.1,"14:05:20",1
"19/10/04","14:20",0.0,26.7,60.3,1001.0,293.0,1.7,4.0,354.1,0.33,18.4,26.1,"14:16:40",1
"19/10/04","14:30",0.0,26.5,60.7,1001.5,344.3,2.1,4.7,344.6,0.30,18.3,26.2,"14:24:56",1
"19/10/04","14:40",0.0,25.8,61.4,1001.7,339.4,3.0,6.2,348.3,0.20,17.9,26.3,"14:31:12",1
"19/10/04","14:50",0.0,25.9,62.5,1001.9,342.4,2.5,6.2,332.9,0.21,18.2,26.2,"14:46:32",1
"19/10/04","15:00",0.0,25.6,61.9,1001.9,341.8,2.6,6.6,351.6,0.22,17.8,26.2,"14:59:28",1
"19/10/04","15:10",0.0,25.8,62.1,1002.2,331.9,2.3,5.0,329.1,0.22,18.0,26.2,"15:06:08",1
"19/10/04","15:20",0.0,25.7,61.7,1002.4,308.6,2.2,4.2,240.4,0.16,17.8,26.1,"15:17:20",1
"19/10/04","15:30",0.0,25.7,62.3,1002.4,312.5,1.8,4.4,308.4,0.09,18.0,26.0,"15:22:48",1
"19/10/04","15:40",0.0,25.5,61.7,1002.6,332.3,2.5,5.4,224.7,0.06,17.7,25.9,"15:39:44",1
"19/10/04","15:50",0.0,25.1,63.1,1002.6,297.6,1.7,4.2,250.9,0.11,17.6,25.8,"15:40:40",1
"19/10/04","16:00",0.0,25.1,64.0,1002.9,295.1,1.6,3.5,243.1,0.17,17.9,25.7,"15:55:28",1
"19/10/04","16:10",0.0,24.9,65.2,1003.1,276.5,1.7,4.7,228.6,0.10,18.0,25.7,"16:00:16",1
"19/10/04","16:20",0.0,25.0,63.9,1003.1,293.8,1.6,4.1,313.9,0.06,17.7,25.5,"16:14:56",1
"19/10/04","16:30",0.2,24.9,65.0,1003.6,296.0,1.3,2.6,321.1,0.05,17.9,25.7,"16:22:24",1
"19/10/04","16:40",0.0,24.8,65.5,1003.6,313.6,1.1,2.4,347.6,0.04,17.9,25.5,"16:36:08",1
"19/10/04","16:50",0.0,24.3,66.2,1004.1,329.4,2.5,6.4,343.2,0.03,17.6,25.6,"16:44:08",1
"19/10/04","17:00",0.0,24.0,67.2,1004.1,320.1,2.6,5.4,318.9,0.04,17.6,25.3,"16:55:12",1
"19/10/04","17:10",0.0,23.8,67.4,1004.1,309.3,2.5,5.6,332.9,0.02,17.4,25.2,"17:08:00",1
"19/10/04","17:20",0.0,23.6,68.1,1004.1,319.6,2.6,6.4,355.8,0.01,17.4,25.1,"17:15:20",1
"19/10/04","17:30",0.0,23.4,68.5,1004.1,322.8,2.7,5.2,314.5,0.01,17.3,25.0,"17:24:24",1
"19/10/04","17:40",0.0,23.1,69.2,1004.3,320.6,3.1,6.6,323.4,0.00,17.2,25.0,"17:32:56",1
"19/10/04","17:50",0.0,23.0,70.1,1004.5,320.1,2.5,5.8,333.2,0.00,17.3,25.0,"17:41:04",1
"19/10/04","18:00",0.0,22.8,71.3,1004.5,314.5,1.6,3.1,333.2,0.00,17.4,24.7,"17:59:20",1
"19/10/04","18:10",0.0,22.7,72.3,1005.0,299.4,1.6,3.1,328.6,0.00,17.5,24.6,"18:08:08",1
"19/10/04","18:20",0.0,22.5,73.1,1004.8,300.7,1.5,3.4,326.5,0.00,17.5,24.3,"18:10:32",1
"19/10/04","18:30",0.0,22.3,73.7,1005.0,307.3,1.7,4.1,335.9,0.00,17.4,24.4,"18:26:56",1
"19/10/04","18:40",0.0,22.2,74.5,1005.0,287.4,1.3,3.4,320.2,0.00,17.5,24.4,"18:32:24",1
"19/10/04","18:50",0.0,21.8,76.7,1005.5,298.0,1.6,3.9,323.4,0.00,17.6,24.1,"18:49:36",1
"19/10/04","19:00",0.0,21.4,78.2,1005.7,285.3,1.3,2.5,329.7,0.00,17.5,24.1,"18:59:36",1
"19/10/04","19:10",0.0,21.3,79.1,1005.5,286.4,1.7,3.5,285.2,0.00,17.6,24.0,"19:03:04",1
"19/10/04","19:20",0.0,21.3,79.2,1005.7,284.6,1.5,2.9,302.3,0.00,17.6,24.2,"19:11:28",1
"19/10/04","19:30",0.0,21.3,79.4,1006.0,297.2,1.5,3.1,329.6,0.00,17.6,23.8,"19:22:08",1
"19/10/04","19:40",0.0,21.2,79.7,1006.0,289.6,1.8,4.0,339.4,0.00,17.6,24.1,"19:38:56",1
"19/10/04","19:50",0.0,21.2,79.9,1006.2,295.9,1.7,3.4,354.4,0.00,17.6,23.9,"19:49:36",1
"19/10/04","20:00",0.0,21.2,79.7,1006.7,298.7,1.6,2.7,316.0,0.00,17.6,23.8,"19:55:52",1
"19/10/04","20:10",0.0,21.2,79.6,1006.2,308.6,1.8,4.0,344.1,0.00,17.6,23.5,"20:08:24",1
"19/10/04","20:20",0.0,21.1,79.5,1006.4,313.1,1.6,3.7,340.0,0.00,17.5,23.7,"20:12:08",1
"19/10/04","20:30",0.0,21.1,79.6,1006.7,305.3,1.8,4.5,336.0,0.00,17.5,23.4,"20:29:12",1
"19/10/04","20:40",0.0,21.1,79.6,1006.7,299.0,1.5,3.4,318.9,0.00,17.5,23.6,"20:39:46",1
"19/10/04","20:50",0.0,21.0,79.7,1006.7,304.0,1.3,2.8,340.3,0.00,17.4,23.7,"20:40:32",1
"19/10/04","21:00",0.0,21.0,79.8,1006.9,297.5,1.2,2.7,237.6,0.00,17.4,23.4,"20:58:08",1
"19/10/04","21:10",0.0,20.9,79.7,1007.1,285.8,1.1,2.5,244.7,0.00,17.3,23.4,"21:01:44",1
"19/10/04","21:20",0.0,21.0,79.4,1007.1,291.1,1.3,4.1,249.5,0.00,17.3,23.3,"21:18:16",1
"19/10/04","21:30",0.0,21.0,79.4,1006.7,283.1,1.3,2.5,262.4,0.00,17.3,23.3,"21:22:00",1
"19/10/04","21:40",0.0,21.0,79.3,1006.9,268.2,1.5,2.7,265.5,0.00,17.3,23.2,"21:32:56",1
"19/10/04","21:50",0.2,20.9,79.4,1006.7,284.6,1.6,3.9,328.3,0.00,17.2,23.2,"21:45:44",1
"19/10/04","22:00",0.0,20.9,79.6,1006.9,285.5,1.5,3.4,279.1,0.00,17.3,23.2,"21:53:44",1
"19/10/04","22:10",0.0,20.9,79.8,1007.1,293.8,1.6,3.4,322.7,0.00,17.3,23.1,"22:03:28",1
"19/10/04","22:20",0.0,20.8,80.1,1006.9,292.3,1.7,3.2,321.0,0.00,17.3,23.1,"22:11:28",1
"19/10/04","22:30",0.0,20.8,80.3,1007.1,288.3,1.5,5.1,314.7,0.00,17.3,23.1,"22:22:56",1
"19/10/04","22:40",0.0,20.8,80.5,1006.7,297.1,1.8,3.5,328.0,0.00,17.4,22.9,"22:37:36",1
"19/10/04","22:50",0.0,20.7,80.7,1006.9,278.5,1.6,2.9,332.0,0.00,17.3,22.8,"22:40:08",1
"19/10/04","23:00",0.0,20.7,80.7,1007.1,298.2,1.5,3.3,340.7,0.00,17.3,23.0,"22:57:52",1
"19/10/04","23:10",0.0,20.6,80.9,1006.9,305.1,2.0,4.7,339.6,0.00,17.2,23.0,"23:00:02",1
"19/10/04","23:20",0.0,20.5,81.3,1006.9,302.7,2.0,6.4,333.8,0.00,17.2,22.9,"23:10:16",1
"19/10/04","23:30",0.0,20.4,81.6,1006.7,323.9,2.1,4.7,344.4,0.00,17.2,22.9,"23:28:40",1
"19/10/04","23:40",0.0,20.2,82.2,1006.9,324.2,2.3,4.8,342.3,0.00,17.1,22.9,"23:30:02",1
"19/10/04","23:50",0.0,20.2,82.5,1006.9,314.9,2.1,3.6,329.2,0.00,17.2,22.7,"23:44:40",1
"19/10/04","24:00",0.0,20.0,82.9,1006.9,313.6,1.8,4.8,350.6,0.00,17.0,22.8,"23:59:44",1
